This demonstration page uses our WeatherBlox Daily Observations layout. Learn more.

Left ArrowRight Arrow

43.775, -88.43883

Hourly Observations for January 28, 2022

Temp ( °F °C ) Dew Point ( °F °C ) Humidity (%) Winds ( mph kmh ) Pressure ( in mb ) Visibility ( mi km ) Precip ( " mm )
12:53 am 00:53 Clear 7 -13.9 -1 -18.3 70 70 N 7 11 30.37 1029 10 16 0.00 0.00
1:53 am 01:53 Clear 5 -15 -3 -19.4 69 69 NNW 5 7 30.37 1029 10 16 0.00 0.00
2:53 am 02:53 Clear 4 -15.6 -3 -19.4 73 73 NNW 3 6 30.37 1029 10 16 0.00 0.00
3:53 am 03:53 Clear -2 -18.9 -8 -22.2 75 75 NW 5 7 30.37 1028 10 16 0.00 0.00
4:53 am 04:53 Clear -3 -19.4 -8 -22.2 79 79 NW 5 7 30.38 1029 10 16 0.00 0.00
5:53 am 05:53 Clear -6 -21.1 -11 -23.9 78 78 WNW 3 6 30.40 1029 10 16 0.00 0.00
6:53 am 06:53 Clear -1 -18.3 -7 -21.7 75 75 NW 5 7 30.40 1030 10 16 0.00 0.00
7:53 am 07:53 Sunny 0 -17.8 -5 -20.6 79 79 WNW 3 6 30.42 1030 10 16 0.00 0.00
8:53 am 08:53 Sunny 2 -16.7 -4 -20 76 76 NW 3 6 30.42 1030 10 16 0.00 0.00
9:53 am 09:53 Sunny 6 -14.4 -1 -18.3 73 73 NW 7 11 30.43 1030 10 16 0.00 0.00
10:53 am 10:53 Sunny 10 -12.2 0 -17.8 63 63 NW 5 7 30.42 1030 10 16 0.00 0.00
11:53 am 11:53 Sunny 13 -10.6 2 -16.7 61 61 NNW 7 11 30.40 1030 10 16 0.00 0.00
12:53 pm 12:53 Sunny 14 -10 1 -17.2 56 56 NNW 6 9 30.38 1029 10 16 0.00 0.00
1:53 pm 13:53 Sunny 15 -9.4 1 -17.2 53 53 W 7 11 30.36 1028 10 16 0.00 0.00
2:53 pm 14:53 Mostly Sunny 16 -8.9 0 -17.8 49 49 W 8 13 30.34 1027 10 16 0.00 0.00
3:53 pm 15:53 Sunny 16 -8.9 0 -17.8 49 49 SW 6 9 30.34 1027 10 16 0.00 0.00
4:53 pm 16:53 Cloudy 15 -9.4 1 -17.2 53 53 SW 5 7 30.34 1027 10 16 0.00 0.00
5:53 pm 17:53 Cloudy 14 -10 0 -17.8 53 53 SW 5 7 30.35 1028 10 16 0.00 0.00
6:53 pm 18:53 Cloudy 13 -10.6 1 -17.2 59 59 SW 5 7 30.35 1028 10 16 0.00 0.00
7:53 pm 19:53 Cloudy 13 -10.6 1 -17.2 59 59 SSW 6 9 30.33 1027 10 16 0.00 0.00
8:53 pm 20:53 Cloudy 12 -11.1 0 -17.8 58 58 SSW 5 7 30.33 1027 10 16 0.00 0.00
9:53 pm 21:53 Clear 10 -12.2 -1 -18.3 61 61 SW 6 9 30.31 1026 10 16 0.00 0.00
10:53 pm 22:53 Cloudy 9 -12.8 -2 -18.9 61 61 SW 6 9 30.30 1026 10 16 0.00 0.00
11:53 pm 23:53 Cloudy 9 -12.8 -1 -18.3 64 64 SSW 5 7 30.29 1026 10 16 0.00 0.00

Powered by AerisWeather